Location: Pic du Midi - T1M
(42.9366°N, 0.1426°E)
Time: 02:01:29
(UTC+01:00)

DX 1 - Pass Details

Date: 23 September 2021
Orbit: 618 x 630 km, 98.4° (Epoch: 19 October)

Event Time Altitude Azimuth Distance (km) Brightness Sun altitude
Rises 20:25:02 0° 21° (NNE) 2,896 ? -17.2°
Reaches altitude 10° 20:27:22 10° 30° (NNE) 1,986 ? -17.6°
Enters shadow 20:30:51 35° 81° (E) 999 ? -18.2°
